Location: La Pernelle
(49.6188°N, 1.2999°W)
Time: 11:03:11
(UTC+00:00)

Cosmos 2278 Rocket - Pass Details

Date: 12 June 2021
Orbit: 840 x 846 km, 71.0° (Epoch: 27 July)

Event Time Altitude Azimuth Distance (km) Brightness Sun altitude
Rises 23:03:16 0° 333° (NNW) 3,411 7.0 -15.9°
Reaches altitude 10° 23:05:51 10° 340° (NNW) 2,474 6.0 -16.0°
Maximum altitude 23:11:16 44° 52° (NE) 1,165 3.1 -16.2°
Enters shadow 23:16:00 13° 121° (ESE) 2,239 4.0 -16.4°
